Weather History for Fort Benning, GA

Change the Weather History Date:

Sunday, September 16, 2012

  Actual Average Record
Temperature  
Mean Temperature 76 °F -  
Max Temperature 90 °F 84 °F 94 °F (2010)
Min Temperature 62 °F 62 °F 51 °F (2001)
Cooling Degree Days 11    
Growing Degree Days 26 (Base 50)    
Moisture  
Dew Point 64 °F    
Average Humidity 91    
Maximum Humidity 100    
Minimum Humidity 46    
Precipitation  
Precipitation 0.00 in - - ()
Sea Level Pressure  
Sea Level Pressure 30.07 in    
Wind  
Wind Speed 0 mph (SSE)    
Max Wind Speed 8 mph    
Max Gust Speed -    
Visibility 4 miles    
Events Fog , Rain    
Averages and records for this station are not official NWS values.
T = Trace of Precipitation, MM = Missing Value Source: NWS Daily Summary

Daily Weather History Graph

Daily Weather History Graph

Search for Another Location

Airport:

Trip Planner

Search our weather history database for the weather conditions in past years. The results will help you decide how hot, cold, wet, or windy it might be!

Date:

Astronomy

Sep. 16, 2012 Rise Set
Actual Time 7:24 AM EDT 7:43 PM EDT
Civil Twilight 7:00 AM EDT 8:08 PM EDT
Nautical Twilight 6:31 AM EDT 8:37 PM EDT
Astronomical Twilight 6:02 AM EDT 9:06 PM EDT
Moon 7:57 AM EDT (9/16) 7:56 PM EDT (9/16)
Length of Visible Light 13h 08m
Length of Day
12h 19m
New Moon, 0% of the Moon is Illuminated
Sep 16
New Moon
Sep 22
First Quarter
Sep 29
Full
Oct 8
Last Quarter
Oct 15
New

Hourly Weather History & Observations

Time (EDT) Temp. Heat Index Dew Point Humidity Pressure Visibility Wind Dir Wind Speed Gust Speed Precip Events Conditions
12:55 AM 68.9 °F - 66.6 °F 92% 30.08 in 10.0 mi Calm Calm - N/A   Overcast
1:55 AM 66.9 °F - 65.1 °F 94% 30.08 in 10.0 mi Calm Calm - N/A   Mostly Cloudy
2:55 AM 67.1 °F - 65.7 °F 95% 30.07 in 10.0 mi Calm Calm - N/A   Clear
3:03 AM 66.2 °F - 64.4 °F 94% 30.07 in 10.0 mi Calm Calm - N/A Rain Light Rain
3:24 AM 66.2 °F - 64.4 °F 94% 30.07 in 10.0 mi Calm Calm - N/A   Clear
3:26 AM 66.2 °F - 64.4 °F 94% 30.07 in 10.0 mi Calm Calm - N/A Rain Light Rain
3:32 AM 66.2 °F - 64.4 °F 94% 30.07 in 10.0 mi Calm Calm - N/A   Clear
3:55 AM 64.8 °F - 64.0 °F 98% 30.06 in 7.0 mi Calm Calm - 0.00 in   Clear
4:55 AM 65.3 °F - 64.6 °F 98% 30.05 in 10.0 mi Calm Calm - N/A   Clear
5:55 AM 63.5 °F - 63.0 °F 98% 30.06 in 10.0 mi Calm Calm - N/A   Clear
6:22 AM 62.6 °F - 62.6 °F 100% 30.06 in 2.5 mi Calm Calm - N/A   Clear
6:24 AM 62.6 °F - 62.6 °F 100% 30.06 in 1.8 mi Calm Calm - N/A   Clear
6:25 AM 62.6 °F - 62.6 °F 100% 30.06 in 1.5 mi Calm Calm - N/A   Clear
6:26 AM 62.6 °F - 62.6 °F 100% 30.06 in 1.0 mi Calm Calm - N/A   Clear
6:27 AM 62.6 °F - 62.6 °F 100% 30.06 in 1.0 mi Calm Calm - N/A   Clear
6:28 AM 62.6 °F - 62.6 °F 100% 30.06 in 0.8 mi Calm Calm - N/A   Clear
6:31 AM 62.6 °F - 62.6 °F 100% 30.06 in 0.5 mi Calm Calm - N/A Fog Fog
6:34 AM 62.6 °F - 62.6 °F 100% 30.06 in 0.5 mi Calm Calm - N/A Fog Fog
6:39 AM 64.4 °F - 62.6 °F 94% 30.07 in 0.5 mi Calm Calm - N/A Fog Fog
6:40 AM 64.4 °F - 62.6 °F 94% 30.07 in 0.8 mi Calm Calm - N/A   Clear
6:41 AM 64.4 °F - 62.6 °F 94% 30.07 in 0.8 mi Calm Calm - N/A   Clear
6:42 AM 64.4 °F - 62.6 °F 94% 30.07 in 1.0 mi Calm Calm - N/A   Clear
6:43 AM 64.4 °F - 62.6 °F 94% 30.07 in 1.0 mi Calm Calm - N/A   Clear
6:44 AM 64.4 °F - 62.6 °F 94% 30.07 in 1.2 mi Calm Calm - N/A   Clear
6:45 AM 64.4 °F - 62.6 °F 94% 30.07 in 1.5 mi Calm Calm - N/A   Clear
6:46 AM 64.4 °F - 62.6 °F 94% 30.07 in 1.8 mi Calm Calm - N/A   Clear
6:47 AM 64.4 °F - 62.6 °F 94% 30.07 in 2.5 mi Calm Calm - N/A   Clear
6:51 AM 62.6 °F - 62.6 °F 100% 30.07 in 1.5 mi Calm Calm - N/A   Clear
6:52 AM 62.6 °F - 62.6 °F 100% 30.07 in 1.2 mi Calm Calm - N/A   Clear
6:53 AM 62.6 °F - 62.6 °F 100% 30.07 in 1.0 mi Calm Calm - N/A   Clear
6:54 AM 62.6 °F - 62.6 °F 100% 30.07 in 0.8 mi Calm Calm - N/A   Clear
6:55 AM 62.8 °F - 62.2 °F 98% 30.07 in 0.8 mi Calm Calm - N/A   Clear
6:56 AM 62.6 °F - 62.6 °F 100% 30.07 in 0.5 mi Calm Calm - N/A Fog Fog
6:57 AM 62.6 °F - 62.6 °F 100% 30.07 in 0.5 mi Calm Calm - N/A Fog Fog
6:58 AM 62.6 °F - 62.6 °F 100% 30.07 in 0.5 mi Calm Calm - N/A Fog Fog
7:02 AM 62.6 °F - 62.6 °F 100% 30.07 in 0.5 mi Calm Calm - N/A Fog Fog
7:03 AM 62.6 °F - 62.6 °F 100% 30.07 in 0.5 mi Calm Calm - N/A Fog Fog
7:04 AM 62.6 °F - 62.6 °F 100% 30.07 in 0.5 mi Calm Calm - N/A Fog Fog
7:05 AM 62.6 °F - 62.6 °F 100% 30.07 in 0.5 mi Calm Calm - N/A Fog Fog
7:06 AM 62.6 °F - 62.6 °F 100% 30.07 in 0.8 mi Calm Calm - N/A   Clear
7:08 AM 62.6 °F - 62.6 °F 100% 30.07 in 1.0 mi Calm Calm - N/A   Clear
7:09 AM 62.6 °F - 62.6 °F 100% 30.07 in 1.2 mi Calm Calm - N/A   Clear
7:10 AM 62.6 °F - 62.6 °F 100% 30.07 in 1.8 mi Calm Calm - N/A   Clear
7:11 AM 62.6 °F - 62.6 °F 100% 30.07 in 2.5 mi Calm Calm - N/A   Clear
7:12 AM 64.4 °F - 62.6 °F 94% 30.07 in 3.0 mi Calm Calm - N/A   Clear
7:14 AM 64.4 °F - 62.6 °F 94% 30.07 in 2.5 mi Calm Calm - N/A   Clear
7:16 AM 62.6 °F - 62.6 °F 100% 30.07 in 1.8 mi Calm Calm - N/A   Clear
7:18 AM 62.6 °F - 62.6 °F 100% 30.07 in 2.0 mi Calm Calm - N/A   Clear
7:22 AM 64.4 °F - 62.6 °F 94% 30.08 in 1.5 mi Calm Calm - N/A   Clear
7:23 AM 64.4 °F - 62.6 °F 94% 30.08 in 1.2 mi Calm Calm - N/A   Clear
7:24 AM 64.4 °F - 62.6 °F 94% 30.08 in 1.0 mi Calm Calm - N/A   Clear
7:25 AM 64.4 °F - 62.6 °F 94% 30.08 in 0.8 mi Calm Calm - N/A   Clear
7:27 AM 62.6 °F - 62.6 °F 100% 30.08 in 0.5 mi Calm Calm - N/A Fog Fog
7:31 AM 62.6 °F - 62.6 °F 100% 30.08 in 0.5 mi Calm Calm - N/A Fog Fog
7:32 AM 64.4 °F - 62.6 °F 94% 30.08 in 0.5 mi Calm Calm - N/A Fog Fog
7:34 AM 64.4 °F - 62.6 °F 94% 30.08 in 0.8 mi Calm Calm - N/A   Clear
7:36 AM 64.4 °F - 62.6 °F 94% 30.08 in 1.0 mi Calm Calm - N/A   Clear
7:37 AM 64.4 °F - 62.6 °F 94% 30.08 in 1.2 mi Calm Calm - N/A   Clear
7:39 AM 64.4 °F - 62.6 °F 94% 30.08 in 1.5 mi Calm Calm - N/A   Clear
7:40 AM 64.4 °F - 62.6 °F 94% 30.08 in 1.8 mi Calm Calm - N/A   Clear
7:41 AM 64.4 °F - 62.6 °F 94% 30.08 in 1.2 mi Calm Calm - N/A   Clear
7:42 AM 64.4 °F - 62.6 °F 94% 30.08 in 1.0 mi Calm Calm - N/A   Clear
7:43 AM 64.4 °F - 62.6 °F 94% 30.08 in 0.8 mi Calm Calm - N/A   Clear
7:44 AM 64.4 °F - 62.6 °F 94% 30.08 in 0.5 mi Calm Calm - N/A Fog Fog
7:54 AM 64.4 °F - 62.6 °F 94% 30.08 in 0.8 mi Calm Calm - N/A   Clear
7:55 AM 63.7 °F - 63.3 °F 99% 30.09 in 1.0 mi Calm Calm - N/A   Clear
8:02 AM 64.4 °F - 64.4 °F 100% 30.09 in 1.2 mi Calm Calm - N/A   Clear
8:08 AM 64.4 °F - 64.4 °F 100% 30.09 in 1.5 mi Calm Calm - N/A   Clear
8:09 AM 64.4 °F - 64.4 °F 100% 30.09 in 2.0 mi Calm Calm - N/A   Clear
8:11 AM 64.4 °F - 64.4 °F 100% 30.09 in 3.0 mi Calm Calm - N/A   Clear
8:55 AM 68.7 °F - 68.2 °F 98% 30.10 in 10.0 mi Calm Calm - N/A   Clear
9:20 AM 73.4 °F - 68.0 °F 83% 30.10 in 10.0 mi Calm Calm - N/A Rain Light Rain
9:53 AM 77.0 °F - 69.8 °F 78% 30.10 in 10.0 mi Calm Calm - N/A   Overcast
9:55 AM 76.6 °F - 69.6 °F 79% 30.10 in 10.0 mi SSE 3.5 mph - 0.00 in   Light Drizzle
9:57 AM 77.0 °F - 69.8 °F 78% 30.10 in 10.0 mi Calm Calm - N/A   Overcast
9:58 AM 77.0 °F - 69.8 °F 78% 30.10 in 10.0 mi Calm Calm - N/A   Light Drizzle
10:15 AM 77.0 °F - 69.8 °F 78% 30.11 in 10.0 mi SSE 3.5 mph - N/A   Overcast
10:55 AM 80.4 °F 83.9 °F 70.5 °F 72% 30.09 in 10.0 mi Variable 3.5 mph - 0.00 in   Partly Cloudy
11:55 AM 84.7 °F 88.8 °F 69.4 °F 60% 30.08 in 10.0 mi Calm Calm - N/A   Partly Cloudy
12:55 PM 87.1 °F 90.2 °F 67.3 °F 52% 30.06 in 10.0 mi ESE 4.6 mph - N/A   Partly Cloudy
1:55 PM 87.3 °F 89.5 °F 66.2 °F 49% 30.04 in 10.0 mi Calm Calm - N/A   Scattered Clouds
2:55 PM 88.7 °F 91.1 °F 66.2 °F 47% 30.01 in 10.0 mi Calm Calm - N/A   Scattered Clouds
3:55 PM 88.7 °F 91.1 °F 66.2 °F 47% 29.99 in 10.0 mi South 8.1 mph - N/A   Overcast
4:55 PM 90.0 °F 92.8 °F 66.4 °F 46% 29.97 in 10.0 mi South 6.9 mph - N/A   Scattered Clouds
5:55 PM 86.5 °F 88.7 °F 66.0 °F 50% 29.97 in 10.0 mi SSE 5.8 mph - N/A   Overcast
6:55 PM 84.6 °F 88.5 °F 69.3 °F 60% 29.97 in 10.0 mi Calm Calm - N/A   Partly Cloudy
7:55 PM 78.3 °F - 70.5 °F 77% 29.98 in 10.0 mi Calm Calm - N/A   Overcast
8:55 PM 77.2 °F - 68.5 °F 75% 30.01 in 10.0 mi Calm Calm - N/A   Partly Cloudy
9:55 PM 74.5 °F - 67.5 °F 79% 30.02 in 10.0 mi Calm Calm - N/A   Clear
10:55 PM 72.5 °F - 67.8 °F 85% 30.03 in 10.0 mi SSW 4.6 mph - N/A   Mostly Cloudy
11:43 PM 71.6 °F - 68.0 °F 88% 30.03 in 10.0 mi Calm Calm - N/A   Light Drizzle
11:52 PM 69.8 °F - 68.0 °F 94% 30.03 in 10.0 mi Calm Calm - N/A   Scattered Clouds
11:55 PM 70.3 °F - 67.8 °F 92% 30.03 in 10.0 mi Calm Calm - 0.00 in   Partly Cloudy